COSMOS 1634

Satellite information

Favourite Embed

Satellite Type and Status

PAYLOADIN ORBIT

Key statistics

Satellite COSMOS 1634 at a glance.

Uptime

14726

Days in orbit

Revolutions

≈ 13.8

Per day

Orbit

LEO

Low Earth Orbit

Inclination

82.9

Latest

Satellite identification and parameters

Extended collection of information and parameters for COSMOS 1634.

Object identification

Identified? True

Debris? False

Object name: COSMOS 1634

International designator: 1985-022A

Object number (NORAD): 15597

Object ID (CCSDS): 15597

Country: COMMONWEALTH OF INDEPENDENT STATES (CIS)

Current information (Y/N): Y

RCS size: LARGE

Orbital parameters

Period: 104.705 minutes

Inclination: 82.9405 deg

SMA: 7358.778 km

Apoapsis: 1005.752 km

Periapsis: 955.534 km

RAAN: 111.77 deg

Eccentricy: 0.0034121

Argument of periapsis: 281.0528 deg

Mean anomaly: 139.9242 deg

Mean motion: 13.75289854 rev/day

Mean motion (dot): 0.00000035 rev/day2

B* drag term: 0.000020918 1/REarth

Two-line elements (TLE)

Creation date: July 6, 2025, 10:26 p.m.

Reference frame: TEME

Reference center: EARTH

Epoch: July 6, 2025, 8:43 p.m. UTC

TLE line 0: 0 COSMOS 1634

TLE line 1: 1 15597U 85022A 25187.86327634 .00000035 00000-0 20918-4 0 9998

TLE line 2: 2 15597 82.9405 111.7700 0034121 281.0528 139.9242 13.75289854 23020

Live tracking on map

Real-time ground track for satellite COSMOS 1634.

In-orbit conjunctions

A list of the most updated potential collisions computed for object COSMOS 1634.

Target Orbit TCA Probability of collision Miss distance Type
FENGYUN 1C DEB SSO 2025-01-04 20:32:05 0.0001028327 207.0 (m) DEBRIS
THORAD AGENA D DEB SSO 2024-11-29 22:03:15 0.0001990554 360.0 (m) DEBRIS
COSMOS 970 DEB LEO 2024-11-04 19:28:34 0.000469096 260.0 (m) DEBRIS
COSMOS 397 DEB LEO 2024-10-23 00:08:26 0.0001974049 27.0 (m) DEBRIS

Associated space launch

Navigation satellite providing location information for the Tsiklon-B navigation system

COSMOS 1634 was lifted into orbit during the mission ‘Kosmos-3M | Parus 49’, on board a Kosmos-3M space rocket.

The launch took place on March 14, 1985, 1:09 a.m. from 132/2.

For more information about the launch, click the button.

Launch to space Kosmos-3M | Parus 49
Kosmos-3M | Parus 49

Agency: N/A

Status: Launch Successful

Launch date: March 14, 1985, 1:09 a.m. UTC

Rocket: Kosmos-3M

Launch pad: 132/2

Location: Plesetsk Cosmodrome, Russian Federation

...

Latest news about this satellite

There are no fresh news available about this satellite. Check back as we update our databases every day.


Newsletter sign-up

Weekly statistics, charts and insights to help you stay on top of the space industry.